STARLINK-32272, 60735

Orbit data source: Space-Track

STARLINK-32272, 60735 is a payload satellite owned by SpaceX/Seattle (US) in LEO that was launched on Wed, 28 Aug 2024 UTC via an FALCON 9 launch vehicle from the Air Force Eastern Test Range (AFETR). Payload-class satellites include a variety of spacecraft equipped with specific instruments for various scientific and technological missions. These include communications satellites like Starlink; space stations such as the ISS; scientific satellites like the Hubble; Earth observation satellites from companies like Planet Labs, Umbra, and HawkEye 360; GPS; miniature CubeSats for education and research; and military/defense satellites.

Loading next visibility...
Identifier
60735, 2024-152R
Orbit
LEO
Country
Flag of USUS
Related business
Manufacturer
SpaceX/Seattle
Mission
Partially operational Commercial Communications
Bus & Motor
STARLINK V2M, Unknown motor
Mass
730 kg wet, ~700 kg dry
Launch date (UTC)
2024-08-28 (1 year ago)
Launch vehicle
FALCON 9
Launch site
Air Force Eastern Test Range (AFETR)
Object type
Payload
Rocket body
Debris
Shape & HBR
Box + 2 Pan, 17.7 m
Radar Cross Section
33.884 m², Large (>1 m²)

Expand to show TLE details & history
Last TLE update: 6 hours ago

TLE from 6 hours ago
0 STARLINK-32272
1 60735U 24152R   26034.50002314  .00254071  00000-0  46004-2 0  9990
2 60735  53.1526  64.1506 0011973  47.5284 174.0230 15.48165397  5706
Epoch: 2026-02-03T12:00Z
TLE epoch observation values (Epoch: 2026-02-03T12:00:01.999Z)
Latitude
-32.27824°
Longitude
-41.45702°
Altitude
440.224 km
Speed
7.643 km/s
True Right ascension
18h 08m 55s
True Declination
-32° 06' 57"
Sunlit
Object was in daylight at epoch
Visualization orbit readout
Latitude
Unknown
Longitude
Unknown
Altitude
Unknown
Speed
Unknown
Apparent Right ascension
Unknown
Apparent Declination
Unknown
Sunlit
N/A
Visualization observer readout
Local Sidereal Time
19:59:20
Azimuth
Unknown
Elevation
Unknown
Doppler factor
Unknown
Orbital elements
Apogee altitude
430.495 km
Perigee altitude
414.21 km
Semi-major axis
6,800.49 km
Eccentricity
0.0012
Inclination
53.1526°
RAAN
64.1506°
Arg. of periapsis
47.5284°
True anomaly
174.03727°
Mean anomaly
174.023°
Eccentric anomaly
174.03013°
Mean motion
3.8702 °/min
Orbital period
93.02 mins
BSTAR
0.0046004
Loading maneuver chart data...
Computing Atmospheric mass density...
Loading historical data...
Loading historical data...
Loading historical data...
Loading historical data...
Loading historical data...
Loading historical data...
Loading historical data...

Documentation

Showing up to 5 results
|